DUBAISAT-1

Last updated on Fri Oct 04 2024 00:02:25 GMT+0000 (Coordinated Universal Time)

1 35682U 09041B 24277.36599787 .00006631 00000+0 10548-2 0 9999 2 35682 97.9227 50.6829 0009978 266.2645 93.7422 14.72327180813493
UTC large
Height (km)
Speed (km/s)
/
Latitude / Longitude
Inclination (degrees)
Orbital Period (minutes)
Azimuth
Elevation
Range (km)
Doppler Factor

Next 0 passes for location: London (51.5072 / 0.1276)

Sorry there are no passes over London.